"Pseudo-MPEC" for X83971
Created 2024 Nov 12 1:31:18 UT using Find_Orb
Click here for an explanation of pseudo-MPECs
Astrometry:
X83971 C2024 10 22.80536502 39 06.52 +22 27 01.0 FixDup 19.5 RVNEOCPD29
X83971 * C2024 10 22.80536502 39 06.52 +22 27 01.0 Duplicate19.5 RVNEOCPD29
X83971 C2024 10 22.81950702 39 06.38 +22 26 58.2 ~AN22 18.8 RVNEOCPD29
X83971 C2024 10 22.83364802 39 05.93 +22 26 56.5 ~AN22 19.7 RVNEOCPD29
Station data:
(D29) Purple Mountain Observatory, XuYi Station (N32.734363 E118.463900)
China. Observers H. B. Zhao, B. Li, G. Zhaori, R. Q. Hong, L. F. Hu.
Measurers H. B. Zhao, B. Li. H. Lu, G. Zhaori. 1.04-m f/1.8 Schmidt + CCD.
Orbital elements: X83971
Perihelion 2022 Oct 17.97993 +/- 1915 TT = 23:31:05 (JD 2459870.47993)
Epoch 2024 Oct 23.0 TT = JDT 2460606.5 Sa: 0.3641 AutoNEOCP
M 16.89229849 +/- 60 (J2000 ecliptic)
n 0.02295086 +/- 0.0926 Peri. 126.28179 +/- 100
a 12.2631862 +/- 33 Node 235.25586 +/- 32
e 0.3883093 +/- 0.173 Incl. 24.81466 +/- 28
P 42.94425 H 10.77 G 0.15 U 11.2 SR
q 7.50127640 +/- 2.87 Q 17.0250960 +/- 8.98
From 4 observations 2024 Oct. 22 (40.7 min); mean residual 0".67
Residuals in arcseconds: 241022 D29 .39- .11+ 241022 D29 1.6+ .38- 241022 D29 .39- .11+ 241022 D29 .78- .22+ Ephemerides (geocentric): Date (UTC) HH RA Dec delta r elong mag " sig PA ---- -------- ------------ ------------ ------ ------ ----- --- -------- 2024 11 12 02 02 32 20.826 +21 27 32.58 7.0689 8.0467 170.5 19.7 42d 105 2024 11 12 03 02 32 20.011 +21 27 24.83 7.0691 8.0467 170.4 19.7 42d 105 2024 11 12 04 02 32 19.197 +21 27 17.08 7.0692 8.0468 170.4 19.7 42d 105 2024 11 12 05 02 32 18.382 +21 27 09.33 7.0694 8.0469 170.4 19.7 42d 105 2024 11 12 06 02 32 17.568 +21 27 01.58 7.0695 8.0469 170.3 19.7 42d 105 2024 11 12 07 02 32 16.754 +21 26 53.83 7.0697 8.0470 170.3 19.7 42d 105 2024 11 12 08 02 32 15.941 +21 26 46.08 7.0698 8.0470 170.3 19.7 42d 105 2024 11 12 09 02 32 15.127 +21 26 38.33 7.0700 8.0471 170.2 19.7 42d 105 2024 11 12 10 02 32 14.314 +21 26 30.58 7.0701 8.0471 170.2 19.7 42d 105 2024 11 12 11 02 32 13.501 +21 26 22.82 7.0703 8.0472 170.2 19.7 42d 105 2024 11 12 12 02 32 12.689 +21 26 15.07 7.0704 8.0473 170.1 19.7 42d 105 2024 11 12 13 02 32 11.876 +21 26 07.31 7.0706 8.0473 170.1 19.7 42d 105 2024 11 12 14 02 32 11.064 +21 25 59.56 7.0708 8.0474 170.0 19.7 42d 105 2024 11 12 15 02 32 10.252 +21 25 51.80 7.0709 8.0474 170.0 19.7 42d 105 2024 11 12 16 02 32 09.440 +21 25 44.04 7.0711 8.0475 170.0 19.7 42d 105 2024 11 12 17 02 32 08.629 +21 25 36.28 7.0712 8.0475 169.9 19.7 42d 105 2024 11 12 18 02 32 07.818 +21 25 28.52 7.0714 8.0476 169.9 19.7 42d 105 2024 11 12 19 02 32 07.007 +21 25 20.77 7.0716 8.0476 169.9 19.7 42d 105 2024 11 12 20 02 32 06.196 +21 25 13.00 7.0717 8.0477 169.8 19.7 42d 105 2024 11 12 21 02 32 05.386 +21 25 05.24 7.0719 8.0478 169.8 19.7 42d 105 2024 11 12 22 02 32 04.575 +21 24 57.48 7.0720 8.0478 169.8 19.7 42d 105 2024 11 12 23 02 32 03.765 +21 24 49.72 7.0722 8.0479 169.7 19.7 42d 105 2024 11 13 00 02 32 02.956 +21 24 41.96 7.0724 8.0479 169.7 19.7 42d 105 2024 11 13 01 02 32 02.146 +21 24 34.19 7.0725 8.0480 169.7 19.7 42d 105 2024 11 13 02 02 32 01.337 +21 24 26.43 7.0727 8.0480 169.6 19.7 42d 105 2024 11 13 03 02 32 00.528 +21 24 18.66 7.0729 8.0481 169.6 19.7 42d 105 2024 11 13 04 02 31 59.719 +21 24 10.90 7.0730 8.0482 169.5 19.7 42d 105 2024 11 13 05 02 31 58.911 +21 24 03.13 7.0732 8.0482 169.5 19.7 42d 105 2024 11 13 06 02 31 58.103 +21 23 55.36 7.0734 8.0483 169.5 19.7 42d 105 2024 11 13 07 02 31 57.295 +21 23 47.59 7.0735 8.0483 169.4 19.7 42d 105 2024 11 13 08 02 31 56.487 +21 23 39.82 7.0737 8.0484 169.4 19.7 42d 105 2024 11 13 09 02 31 55.680 +21 23 32.06 7.0739 8.0484 169.4 19.7 42d 105 2024 11 13 10 02 31 54.872 +21 23 24.29 7.0740 8.0485 169.3 19.7 42d 105 2024 11 13 11 02 31 54.065 +21 23 16.51 7.0742 8.0485 169.3 19.7 42d 105 2024 11 13 12 02 31 53.259 +21 23 08.74 7.0744 8.0486 169.3 19.7 42d 105 2024 11 13 13 02 31 52.452 +21 23 00.97 7.0745 8.0487 169.2 19.7 42d 105 2024 11 13 14 02 31 51.646 +21 22 53.20 7.0747 8.0487 169.2 19.7 42d 105 2024 11 13 15 02 31 50.840 +21 22 45.43 7.0749 8.0488 169.1 19.7 42d 105 2024 11 13 16 02 31 50.035 +21 22 37.65 7.0751 8.0488 169.1 19.7 42d 105 2024 11 13 17 02 31 49.229 +21 22 29.88 7.0752 8.0489 169.1 19.7 42d 105 2024 11 13 18 02 31 48.424 +21 22 22.10 7.0754 8.0489 169.0 19.7 42d 105 2024 11 13 19 02 31 47.620 +21 22 14.33 7.0756 8.0490 169.0 19.7 42d 105 2024 11 13 20 02 31 46.815 +21 22 06.55 7.0757 8.0491 169.0 19.7 42d 105 2024 11 13 21 02 31 46.011 +21 21 58.77 7.0759 8.0491 168.9 19.7 42d 105 2024 11 13 22 02 31 45.207 +21 21 51.00 7.0761 8.0492 168.9 19.7 42d 105 2024 11 13 23 02 31 44.403 +21 21 43.22 7.0763 8.0492 168.8 19.7 42d 105 2024 11 14 00 02 31 43.599 +21 21 35.44 7.0764 8.0493 168.8 19.7 42d 105 2024 11 14 01 02 31 42.796 +21 21 27.66 7.0766 8.0493 168.8 19.7 42d 105